Wetterdaten: Mittwoch, 31.05.2023
Datum Zeit Temp. 2m Temp +5 cm Feuchte A. Luftdruck Regen Wind Richtung Richtung Sonnenschein UV Solar Taupunkt Windchill Windben
31.05.2023 00:00 12,1 C 10,6 C 78 % 1024,8 hPa 0,0 l/m 13,7 km/h (3 Bft) N-NO 22 0 min 0,0 UV-I 0 W/m 8,4 C 8,2 C 22,5 km/h (4 Bft)
31.05.2023 00:03 12,1 C 10,6 C 78 % 1024,8 hPa 0,0 l/m 12,6 km/h (3 Bft) N-NO 18 0 min 0,0 UV-I 0 W/m 8,4 C 8,7 C 24,1 km/h (4 Bft)
31.05.2023 00:06 12,0 C 10,6 C 78 % 1024,9 hPa 0,0 l/m 12,4 km/h (3 Bft) N-NO 15 0 min 0,0 UV-I 0 W/m 8,3 C 8,6 C 19,3 km/h (3 Bft)
31.05.2023 00:09 11,9 C 10,6 C 78 % 1024,8 hPa 0,0 l/m 12,4 km/h (3 Bft) N 360 0 min 0,0 UV-I 0 W/m 8,2 C 8,5 C 22,5 km/h (4 Bft)
31.05.2023 00:12 11,9 C 10,6 C 78 % 1024,8 hPa 0,0 l/m 11,3 km/h (2 Bft) NO 41 0 min 0,0 UV-I 0 W/m 8,2 C 9,0 C 17,7 km/h (3 Bft)
31.05.2023 00:15 11,8 C 10,0 C 79 % 1024,8 hPa 0,0 l/m 7,2 km/h (2 Bft) NO 34 0 min 0,0 UV-I 0 W/m 8,3 C 11,3 C 14,5 km/h (3 Bft)
31.05.2023 00:18 11,7 C 10,0 C 79 % 1024,7 hPa 0,0 l/m 9,6 km/h (2 Bft) N-NO 27 0 min 0,0 UV-I 0 W/m 8,2 C 9,7 C 14,5 km/h (3 Bft)
31.05.2023 00:21 11,7 C 10,0 C 80 % 1024,8 hPa 0,0 l/m 9,5 km/h (2 Bft) N-NO 21 0 min 0,0 UV-I 0 W/m 8,4 C 9,7 C 16,1 km/h (3 Bft)
31.05.2023 00:24 11,6 C 10,0 C 79 % 1024,7 hPa 0,0 l/m 7,8 km/h (2 Bft) NO 38 0 min 0,0 UV-I 0 W/m 8,1 C 10,7 C 12,9 km/h (3 Bft)
31.05.2023 00:27 11,6 C 10,0 C 80 % 1024,8 hPa 0,0 l/m 5,4 km/h (1 Bft) NO 40 0 min 0,0 UV-I 0 W/m 8,3 C 11,6 C 14,5 km/h (3 Bft)
31.05.2023 00:30 11,4 C 9,4 C 80 % 1024,8 hPa 0,0 l/m 6,1 km/h (2 Bft) NO 34 0 min 0,0 UV-I 0 W/m 8,1 C 11,4 C 9,7 km/h (2 Bft)
31.05.2023 00:33 11,3 C 9,4 C 80 % 1024,7 hPa 0,0 l/m 3,2 km/h (1 Bft) NO 34 0 min 0,0 UV-I 0 W/m 8,0 C 11,3 C 6,4 km/h (2 Bft)
31.05.2023 00:36 11,2 C 8,9 C 81 % 1024,8 hPa 0,0 l/m 1,2 km/h (1 Bft) NO 34 0 min 0,0 UV-I 0 W/m 8,1 C 11,2 C 3,2 km/h (1 Bft)
31.05.2023 00:39 11,1 C 8,3 C 81 % 1024,7 hPa 0,0 l/m 1,9 km/h (1 Bft) NO 34 0 min 0,0 UV-I 0 W/m 8,0 C 11,1 C 4,8 km/h (1 Bft)
31.05.2023 00:42 10,8 C 8,3 C 82 % 1024,7 hPa 0,0 l/m 3,0 km/h (1 Bft) NO 46 0 min 0,0 UV-I 0 W/m 7,9 C 10,8 C 8,0 km/h (2 Bft)
31.05.2023 00:45 10,7 C 8,3 C 82 % 1024,7 hPa 0,0 l/m 2,3 km/h (1 Bft) NO 46 0 min 0,0 UV-I 0 W/m 7,8 C 10,7 C 4,8 km/h (1 Bft)
31.05.2023 00:48 10,6 C 7,8 C 83 % 1024,7 hPa 0,0 l/m 2,5 km/h (1 Bft) NO 46 0 min 0,0 UV-I 0 W/m 7,8 C 10,6 C 4,8 km/h (1 Bft)
31.05.2023 00:51 10,6 C 7,8 C 83 % 1024,8 hPa 0,0 l/m 2,4 km/h (1 Bft) NO 46 0 min 0,0 UV-I 0 W/m 7,8 C 10,6 C 6,4 km/h (2 Bft)
31.05.2023 00:54 10,6 C 7,8 C 83 % 1024,7 hPa 0,0 l/m 2,0 km/h (1 Bft) NO 46 0 min 0,0 UV-I 0 W/m 7,8 C 10,6 C 6,4 km/h (2 Bft)
31.05.2023 00:57 10,4 C 7,8 C 84 % 1024,7 hPa 0,0 l/m 2,4 km/h (1 Bft) NO 46 0 min 0,0 UV-I 0 W/m 7,8 C 10,4 C 4,8 km/h (1 Bft)
31.05.2023 01:00 10,3 C 7,8 C 84 % 1024,7 hPa 0,0 l/m 3,1 km/h (1 Bft) NO 46 0 min 0,0 UV-I 0 W/m 7,7 C 10,3 C 4,8 km/h (1 Bft)
31.05.2023 01:03 10,3 C 7,8 C 84 % 1024,7 hPa 0,0 l/m 3,0 km/h (1 Bft) NO 46 0 min 0,0 UV-I 0 W/m 7,7 C 10,3 C 4,8 km/h (1 Bft)
31.05.2023 01:06 10,3 C 7,8 C 85 % 1024,7 hPa 0,0 l/m 2,4 km/h (1 Bft) NO 46 0 min 0,0 UV-I 0 W/m 7,9 C 10,3 C 4,8 km/h (1 Bft)
31.05.2023 01:09 10,3 C 7,8 C 85 % 1024,8 hPa 0,0 l/m 1,9 km/h (1 Bft) NO 46 0 min 0,0 UV-I 0 W/m 7,9 C 10,3 C 4,8 km/h (1 Bft)
31.05.2023 01:12 10,3 C 7,2 C 85 % 1024,8 hPa 0,0 l/m 2,2 km/h (1 Bft) NO 46 0 min 0,0 UV-I 0 W/m 7,9 C 10,3 C 4,8 km/h (1 Bft)
31.05.2023 01:15 10,3 C 7,2 C 85 % 1024,8 hPa 0,0 l/m 2,1 km/h (1 Bft) NO 46 0 min 0,0 UV-I 0 W/m 7,9 C 10,3 C 4,8 km/h (1 Bft)
31.05.2023 01:18 10,4 C 7,2 C 85 % 1024,8 hPa 0,0 l/m 1,4 km/h (1 Bft) NO 46 0 min 0,0 UV-I 0 W/m 8,0 C 10,4 C 3,2 km/h (1 Bft)
31.05.2023 01:21 10,4 C 7,2 C 84 % 1024,8 hPa 0,0 l/m 0,7 km/h (0 Bft) NO 46 0 min 0,0 UV-I 0 W/m 7,8 C 10,4 C 3,2 km/h (1 Bft)
31.05.2023 01:24 10,4 C 7,2 C 84 % 1024,7 hPa 0,0 l/m 0,0 km/h (0 Bft) NO 46 0 min 0,0 UV-I 0 W/m 7,8 C 10,4 C 0,0 km/h (0 Bft)
31.05.2023 01:27 10,4 C 7,2 C 85 % 1024,8 hPa 0,0 l/m 0,6 km/h (0 Bft) NO 46 0 min 0,0 UV-I 0 W/m 8,0 C 10,4 C 1,6 km/h (1 Bft)
31.05.2023 01:30 10,6 C 7,8 C 85 % 1024,9 hPa 0,0 l/m 1,5 km/h (1 Bft) NO 46 0 min 0,0 UV-I 0 W/m 8,2 C 10,6 C 3,2 km/h (1 Bft)
31.05.2023 01:33 10,6 C 7,8 C 84 % 1024,7 hPa 0,0 l/m 2,1 km/h (1 Bft) NO 46 0 min 0,0 UV-I 0 W/m 8,0 C 10,6 C 3,2 km/h (1 Bft)
31.05.2023 01:36 10,5 C 7,8 C 84 % 1024,8 hPa 0,0 l/m 1,0 km/h (0 Bft) NO 46 0 min 0,0 UV-I 0 W/m 7,9 C 10,5 C 1,6 km/h (1 Bft)
31.05.2023 01:39 10,5 C 7,8 C 84 % 1024,9 hPa 0,0 l/m 1,4 km/h (1 Bft) NO 46 0 min 0,0 UV-I 0 W/m 7,9 C 10,5 C 3,2 km/h (1 Bft)
31.05.2023 01:42 10,4 C 7,8 C 84 % 1024,9 hPa 0,0 l/m 1,4 km/h (1 Bft) NO 46 0 min 0,0 UV-I 0 W/m 7,8 C 10,4 C 3,2 km/h (1 Bft)
31.05.2023 01:45 10,4 C 7,8 C 84 % 1024,8 hPa 0,0 l/m 2,3 km/h (1 Bft) NO 46 0 min 0,0 UV-I 0 W/m 7,8 C 10,4 C 4,8 km/h (1 Bft)
31.05.2023 01:48 10,3 C 7,8 C 84 % 1024,8 hPa 0,0 l/m 0,8 km/h (0 Bft) NO 46 0 min 0,0 UV-I 0 W/m 7,7 C 10,3 C 3,2 km/h (1 Bft)
31.05.2023 01:51 10,2 C 7,8 C 85 % 1024,9 hPa 0,0 l/m 1,5 km/h (1 Bft) NO 46 0 min 0,0 UV-I 0 W/m 7,8 C 10,2 C 3,2 km/h (1 Bft)
31.05.2023 01:54 10,2 C 7,2 C 85 % 1024,8 hPa 0,0 l/m 1,7 km/h (1 Bft) NO 46 0 min 0,0 UV-I 0 W/m 7,8 C 10,2 C 3,2 km/h (1 Bft)
31.05.2023 01:57 10,1 C 7,2 C 85 % 1024,9 hPa 0,0 l/m 2,9 km/h (1 Bft) NO 46 0 min 0,0 UV-I 0 W/m 7,7 C 10,1 C 4,8 km/h (1 Bft)
31.05.2023 02:00 10,0 C 7,2 C 85 % 1024,9 hPa 0,0 l/m 2,1 km/h (1 Bft) NO 46 0 min 0,0 UV-I 0 W/m 7,6 C 10,0 C 4,8 km/h (1 Bft)
31.05.2023 02:03 9,8 C 7,2 C 86 % 1024,9 hPa 0,0 l/m 2,3 km/h (1 Bft) NO 46 0 min 0,0 UV-I 0 W/m 7,6 C 9,8 C 4,8 km/h (1 Bft)
31.05.2023 02:06 9,7 C 7,2 C 86 % 1024,9 hPa 0,0 l/m 3,4 km/h (1 Bft) NO 46 0 min 0,0 UV-I 0 W/m 7,5 C 9,7 C 4,8 km/h (1 Bft)
31.05.2023 02:09 9,6 C 6,7 C 86 % 1025,0 hPa 0,0 l/m 4,8 km/h (1 Bft) NO 38 0 min 0,0 UV-I 0 W/m 7,4 C 9,6 C 8,0 km/h (2 Bft)
31.05.2023 02:12 9,6 C 6,7 C 87 % 1024,9 hPa 0,0 l/m 5,2 km/h (1 Bft) NO 39 0 min 0,0 UV-I 0 W/m 7,5 C 9,6 C 6,4 km/h (2 Bft)
31.05.2023 02:15 9,5 C 6,7 C 87 % 1024,8 hPa 0,0 l/m 6,1 km/h (2 Bft) NO 39 0 min 0,0 UV-I 0 W/m 7,4 C 9,5 C 8,0 km/h (2 Bft)
31.05.2023 02:18 9,5 C 6,7 C 87 % 1024,9 hPa 0,0 l/m 7,0 km/h (2 Bft) N-NO 23 0 min 0,0 UV-I 0 W/m 7,4 C 9,1 C 9,7 km/h (2 Bft)
31.05.2023 02:21 9,5 C 6,7 C 87 % 1024,9 hPa 0,0 l/m 8,1 km/h (2 Bft) N-NO 23 0 min 0,0 UV-I 0 W/m 7,4 C 8,3 C 11,3 km/h (2 Bft)
31.05.2023 02:24 9,6 C 7,2 C 87 % 1025,0 hPa 0,0 l/m 7,9 km/h (2 Bft) N-NO 31 0 min 0,0 UV-I 0 W/m 7,5 C 8,5 C 9,7 km/h (2 Bft)
31.05.2023 02:27 9,5 C 7,2 C 87 % 1024,9 hPa 0,0 l/m 6,1 km/h (2 Bft) N-NO 29 0 min 0,0 UV-I 0 W/m 7,4 C 9,5 C 8,0 km/h (2 Bft)
31.05.2023 02:30 9,4 C 6,7 C 87 % 1024,9 hPa 0,0 l/m 7,0 km/h (2 Bft) NO 38 0 min 0,0 UV-I 0 W/m 7,3 C 9,0 C 9,7 km/h (2 Bft)
31.05.2023 02:33 9,4 C 6,7 C 87 % 1024,9 hPa 0,0 l/m 6,6 km/h (2 Bft) NO 36 0 min 0,0 UV-I 0 W/m 7,3 C 9,3 C 8,0 km/h (2 Bft)
31.05.2023 02:36 9,4 C 6,7 C 87 % 1024,9 hPa 0,0 l/m 6,6 km/h (2 Bft) NO 37 0 min 0,0 UV-I 0 W/m 7,3 C 9,3 C 8,0 km/h (2 Bft)
31.05.2023 02:39 9,3 C 6,7 C 87 % 1024,9 hPa 0,0 l/m 6,6 km/h (2 Bft) NO 37 0 min 0,0 UV-I 0 W/m 7,2 C 9,2 C 8,0 km/h (2 Bft)
31.05.2023 02:42 9,3 C 6,7 C 88 % 1024,8 hPa 0,0 l/m 7,1 km/h (2 Bft) NO 36 0 min 0,0 UV-I 0 W/m 7,4 C 8,8 C 9,7 km/h (2 Bft)
31.05.2023 02:45 9,3 C 6,7 C 88 % 1024,9 hPa 0,0 l/m 6,9 km/h (2 Bft) N-NO 32 0 min 0,0 UV-I 0 W/m 7,4 C 8,9 C 8,0 km/h (2 Bft)
31.05.2023 02:48 9,3 C 6,7 C 88 % 1024,8 hPa 0,0 l/m 8,1 km/h (2 Bft) N-NO 24 0 min 0,0 UV-I 0 W/m 7,4 C 8,0 C 9,7 km/h (2 Bft)
31.05.2023 02:51 9,3 C 6,7 C 88 % 1024,8 hPa 0,0 l/m 8,6 km/h (2 Bft) N-NO 24 0 min 0,0 UV-I 0 W/m 7,4 C 7,7 C 12,9 km/h (3 Bft)
31.05.2023 02:54 9,4 C 6,7 C 88 % 1024,8 hPa 0,0 l/m 8,0 km/h (2 Bft) N-NO 30 0 min 0,0 UV-I 0 W/m 7,5 C 8,2 C 9,7 km/h (2 Bft)
31.05.2023 02:57 9,3 C 6,7 C 88 % 1024,8 hPa 0,0 l/m 7,2 km/h (2 Bft) NO 36 0 min 0,0 UV-I 0 W/m 7,4 C 8,7 C 9,7 km/h (2 Bft)
31.05.2023 03:00 9,3 C 6,7 C 88 % 1024,8 hPa 0,0 l/m 6,8 km/h (2 Bft) NO 36 0 min 0,0 UV-I 0 W/m 7,4 C 9,0 C 8,0 km/h (2 Bft)
31.05.2023 03:03 9,2 C 6,7 C 88 % 1024,8 hPa 0,0 l/m 7,0 km/h (2 Bft) NO 38 0 min 0,0 UV-I 0 W/m 7,3 C 8,8 C 8,0 km/h (2 Bft)
31.05.2023 03:06 9,1 C 6,1 C 88 % 1024,8 hPa 0,0 l/m 6,8 km/h (2 Bft) NO 37 0 min 0,0 UV-I 0 W/m 7,2 C 8,8 C 8,0 km/h (2 Bft)
31.05.2023 03:09 9,1 C 6,1 C 88 % 1024,8 hPa 0,0 l/m 6,1 km/h (2 Bft) NO 37 0 min 0,0 UV-I 0 W/m 7,2 C 9,1 C 8,0 km/h (2 Bft)
31.05.2023 03:12 9,0 C 6,1 C 88 % 1024,7 hPa 0,0 l/m 6,2 km/h (2 Bft) NO 38 0 min 0,0 UV-I 0 W/m 7,1 C 9,0 C 8,0 km/h (2 Bft)
31.05.2023 03:15 9,1 C 6,1 C 88 % 1024,8 hPa 0,0 l/m 6,4 km/h (2 Bft) NO 37 0 min 0,0 UV-I 0 W/m 7,2 C 9,1 C 8,0 km/h (2 Bft)
31.05.2023 03:18 9,0 C 6,1 C 89 % 1024,8 hPa 0,0 l/m 6,3 km/h (2 Bft) NO 35 0 min 0,0 UV-I 0 W/m 7,3 C 9,0 C 8,0 km/h (2 Bft)
31.05.2023 03:21 9,0 C 6,1 C 89 % 1024,7 hPa 0,0 l/m 6,3 km/h (2 Bft) NO 34 0 min 0,0 UV-I 0 W/m 7,3 C 9,0 C 8,0 km/h (2 Bft)
31.05.2023 03:24 9,0 C 6,1 C 89 % 1024,7 hPa 0,0 l/m 6,1 km/h (2 Bft) NO 35 0 min 0,0 UV-I 0 W/m 7,3 C 9,0 C 8,0 km/h (2 Bft)
31.05.2023 03:27 9,0 C 6,1 C 89 % 1024,8 hPa 0,0 l/m 6,9 km/h (2 Bft) NO 35 0 min 0,0 UV-I 0 W/m 7,3 C 8,6 C 8,0 km/h (2 Bft)
31.05.2023 03:30 8,9 C 6,1 C 89 % 1024,8 hPa 0,0 l/m 6,8 km/h (2 Bft) NO 36 0 min 0,0 UV-I 0 W/m 7,2 C 8,6 C 8,0 km/h (2 Bft)
31.05.2023 03:33 8,9 C 6,1 C 89 % 1024,6 hPa 0,0 l/m 6,8 km/h (2 Bft) N-NO 30 0 min 0,0 UV-I 0 W/m 7,2 C 8,6 C 8,0 km/h (2 Bft)
31.05.2023 03:36 8,9 C 6,1 C 89 % 1024,6 hPa 0,0 l/m 6,2 km/h (2 Bft) N-NO 31 0 min 0,0 UV-I 0 W/m 7,2 C 8,9 C 8,0 km/h (2 Bft)
31.05.2023 03:39 8,9 C 6,1 C 89 % 1024,7 hPa 0,0 l/m 5,7 km/h (1 Bft) N-NO 31 0 min 0,0 UV-I 0 W/m 7,2 C 8,9 C 6,4 km/h (2 Bft)
31.05.2023 03:42 8,8 C 6,1 C 89 % 1024,8 hPa 0,0 l/m 5,6 km/h (1 Bft) N-NO 30 0 min 0,0 UV-I 0 W/m 7,1 C 8,8 C 8,0 km/h (2 Bft)
31.05.2023 03:45 8,8 C 6,1 C 89 % 1024,7 hPa 0,0 l/m 5,7 km/h (1 Bft) N-NO 30 0 min 0,0 UV-I 0 W/m 7,1 C 8,8 C 8,0 km/h (2 Bft)
31.05.2023 03:48 8,7 C 6,1 C 89 % 1024,7 hPa 0,0 l/m 5,9 km/h (2 Bft) N-NO 30 0 min 0,0 UV-I 0 W/m 7,0 C 8,7 C 8,0 km/h (2 Bft)
31.05.2023 03:51 8,7 C 6,1 C 90 % 1024,7 hPa 0,0 l/m 5,4 km/h (1 Bft) N-NO 29 0 min 0,0 UV-I 0 W/m 7,2 C 8,7 C 8,0 km/h (2 Bft)
31.05.2023 03:54 8,7 C 6,1 C 89 % 1024,7 hPa 0,0 l/m 5,4 km/h (1 Bft) N-NO 28 0 min 0,0 UV-I 0 W/m 7,0 C 8,7 C 6,4 km/h (2 Bft)
31.05.2023 03:57 8,6 C 5,6 C 90 % 1024,7 hPa 0,0 l/m 5,8 km/h (2 Bft) N-NO 28 0 min 0,0 UV-I 0 W/m 7,1 C 8,6 C 8,0 km/h (2 Bft)
31.05.2023 04:00 8,6 C 5,6 C 90 % 1024,6 hPa 0,0 l/m 5,9 km/h (2 Bft) N-NO 27 0 min 0,0 UV-I 0 W/m 7,1 C 8,6 C 8,0 km/h (2 Bft)
31.05.2023 04:03 8,6 C 5,6 C 90 % 1024,7 hPa 0,0 l/m 6,9 km/h (2 Bft) N-NO 25 0 min 0,0 UV-I 0 W/m 7,1 C 8,2 C 8,0 km/h (2 Bft)
31.05.2023 04:06 8,7 C 5,6 C 90 % 1024,7 hPa 0,0 l/m 6,3 km/h (2 Bft) N-NO 24 0 min 0,0 UV-I 0 W/m 7,2 C 8,7 C 8,0 km/h (2 Bft)
31.05.2023 04:09 8,6 C 5,6 C 90 % 1024,7 hPa 0,0 l/m 6,3 km/h (2 Bft) N-NO 23 0 min 0,0 UV-I 0 W/m 7,1 C 8,6 C 8,0 km/h (2 Bft)
31.05.2023 04:12 8,6 C 5,6 C 90 % 1024,7 hPa 0,0 l/m 6,7 km/h (2 Bft) N-NO 22 0 min 0,0 UV-I 0 W/m 7,1 C 8,4 C 9,7 km/h (2 Bft)
31.05.2023 04:15 8,6 C 5,6 C 90 % 1024,7 hPa 0,0 l/m 7,5 km/h (2 Bft) N-NO 20 0 min 0,0 UV-I 0 W/m 7,1 C 7,8 C 11,3 km/h (2 Bft)
31.05.2023 04:18 8,5 C 5,6 C 90 % 1024,7 hPa 0,0 l/m 6,8 km/h (2 Bft) N-NO 21 0 min 0,0 UV-I 0 W/m 7,0 C 8,2 C 8,0 km/h (2 Bft)
31.05.2023 04:21 8,5 C 5,6 C 90 % 1024,8 hPa 0,0 l/m 7,0 km/h (2 Bft) N-NO 22 0 min 0,0 UV-I 0 W/m 7,0 C 8,0 C 8,0 km/h (2 Bft)
31.05.2023 04:24 8,6 C 5,6 C 90 % 1024,6 hPa 0,0 l/m 6,2 km/h (2 Bft) N-NO 22 0 min 0,0 UV-I 0 W/m 7,1 C 8,6 C 8,0 km/h (2 Bft)
31.05.2023 04:27 8,4 C 5,6 C 89 % 1024,8 hPa 0,0 l/m 5,5 km/h (1 Bft) N-NO 22 0 min 0,0 UV-I 0 W/m 6,7 C 8,4 C 8,0 km/h (2 Bft)
31.05.2023 04:30 8,3 C 5,6 C 90 % 1024,8 hPa 0,0 l/m 6,0 km/h (2 Bft) N-NO 22 0 min 0,0 UV-I 0 W/m 6,8 C 8,3 C 8,0 km/h (2 Bft)
31.05.2023 04:33 8,3 C 5,6 C 90 % 1024,7 hPa 0,0 l/m 5,9 km/h (2 Bft) N-NO 22 0 min 0,0 UV-I 0 W/m 6,8 C 8,3 C 8,0 km/h (2 Bft)
31.05.2023 04:36 8,3 C 5,6 C 90 % 1024,8 hPa 0,0 l/m 5,9 km/h (2 Bft) N-NO 24 0 min 0,0 UV-I 0 W/m 6,8 C 8,3 C 8,0 km/h (2 Bft)
31.05.2023 04:39 8,3 C 5,6 C 90 % 1024,7 hPa 0,0 l/m 5,8 km/h (2 Bft) N-NO 24 0 min 0,0 UV-I 0 W/m 6,8 C 8,3 C 8,0 km/h (2 Bft)
31.05.2023 04:42 8,3 C 5,6 C 90 % 1024,8 hPa 0,0 l/m 6,5 km/h (2 Bft) N-NO 31 0 min 0,0 UV-I 0 W/m 6,8 C 8,2 C 8,0 km/h (2 Bft)
31.05.2023 04:45 8,3 C 5,6 C 90 % 1024,8 hPa 0,0 l/m 6,5 km/h (2 Bft) N-NO 30 0 min 0,0 UV-I 0 W/m 6,8 C 8,2 C 9,7 km/h (2 Bft)
31.05.2023 04:48 8,4 C 5,6 C 90 % 1024,7 hPa 0,0 l/m 7,3 km/h (2 Bft) N-NO 28 0 min 0,0 UV-I 0 W/m 6,9 C 7,7 C 9,7 km/h (2 Bft)
31.05.2023 04:51 8,4 C 5,6 C 90 % 1024,6 hPa 0,0 l/m 7,3 km/h (2 Bft) N-NO 23 0 min 0,0 UV-I 0 W/m 6,9 C 7,7 C 9,7 km/h (2 Bft)
31.05.2023 04:54 8,4 C 5,6 C 90 % 1024,6 hPa 0,0 l/m 7,8 km/h (2 Bft) N-NO 24 0 min 0,0 UV-I 0 W/m 6,9 C 7,3 C 9,7 km/h (2 Bft)
31.05.2023 04:57 8,3 C 5,6 C 90 % 1024,5 hPa 0,0 l/m 6,8 km/h (2 Bft) N-NO 26 0 min 0,0 UV-I 0 W/m 6,8 C 8,0 C 9,7 km/h (2 Bft)
31.05.2023 05:00 8,4 C 5,6 C 90 % 1024,6 hPa 0,0 l/m 7,7 km/h (2 Bft) N-NO 25 0 min 0,0 UV-I 0 W/m 6,9 C 7,4 C 9,7 km/h (2 Bft)
31.05.2023 05:03 8,3 C 6,1 C 90 % 1024,7 hPa 0,0 l/m 7,0 km/h (2 Bft) N-NO 29 0 min 0,0 UV-I 0 W/m 6,8 C 7,8 C 9,7 km/h (2 Bft)
31.05.2023 05:06 8,3 C 5,6 C 90 % 1024,6 hPa 0,0 l/m 6,5 km/h (2 Bft) N-NO 28 0 min 0,0 UV-I 0 W/m 6,8 C 8,2 C 9,7 km/h (2 Bft)
31.05.2023 05:09 8,2 C 5,6 C 90 % 1024,6 hPa 0,0 l/m 7,4 km/h (2 Bft) N-NO 33 0 min 0,0 UV-I 0 W/m 6,7 C 7,4 C 9,7 km/h (2 Bft)
_ Min-Zeit 05:09 03:57 00:00 04:57 - 01:24 - - - - - 05:09 04:54 01:24
Minimum _ 8,2 C 5,6 C 78 % 1024,5 hPa - 0,0 km/h (0 Bft) - - - - - 6,7 C 7,3 C 0,0 km/h (0 Bft)
_ Max-Zeit 00:00 00:00 03:51 02:09 00:00 00:00 - - 00:00 00:00 00:00 00:00 00:27 00:03
Maximum _ 12,1 C 10,6 C 90 % 1025,0 hPa 0,0 l/m 13,7 km/h
N-NO (3 Bft)
- - 0 min 0,0 UV-I 0 W/m 8,4 C 11,6 C 24,1 km/h
N-NO (4 Bft)
Durchschnitt _ 9,7 C 7,0 C 86 % 1024,8 hPa #0,0 l/m 5,5 km/h (1 Bft) NO - #0 min. 0,0 UV-I 0 W/m 7,5 C 9,3 C 8,1 km/h (2 Bft)